Olbia/Costa Smer, Italy

3:52 AM CET on February 26, 2017 (GMT +0100)
Costa Smeralda

Weather History for LIEO - October, 2012

Change the Weather History Date:

Wednesday, October 17, 2012

  Actual Average Record
Temperature  
Mean Temperature 62 °F -  
Max Temperature 73 °F 66 °F 87 °F (2014)
Min Temperature 51 °F 49 °F 46 °F (2011)
Degree Days  
Heating Degree Days 3    
Growing Degree Days 12 (Base 50)    
Moisture  
Dew Point 55 °F    
Average Humidity 74    
Maximum Humidity 94    
Minimum Humidity 50    
Precipitation  
Precipitation 0.00 in 0.07 in - ()
Sea Level Pressure  
Sea Level Pressure 30.14 in    
Wind  
Wind Speed 6 mph ()    
Max Wind Speed 14 mph    
Max Gust Speed -    
Visibility 6.2 miles    
Events      
Averages and records for this station are not official NWS values.
T = Trace of Precipitation, MM = Missing Value Source: Averaged Metar Reports

Daily Weather History Graph

Daily Weather History Graph

Search for Another Location

Airport or City:

Trip Planner

Search our weather history database for the weather conditions in past years. The results will help you decide how hot, cold, wet, or windy it might be!

Date:

Astronomy

Oct. 17, 2012 Rise Set
Actual Time 7:35 AM CEST 6:38 PM CEST
Civil Twilight 7:07 AM CEST 7:05 PM CEST
Nautical Twilight 6:36 AM CEST 7:37 PM CEST
Astronomical Twilight 6:04 AM CEST 8:09 PM CEST
Moon 9:51 AM CEST (10/17) 7:57 PM CEST (10/17)
Length of Visible Light 11h 57m
Length of Day
11h 02m
Waxing Crescent, 5% of the Moon is Illuminated
Oct 17
Waxing Crescent
Oct 22
First Quarter
Oct 29
Full
Nov 7
Last Quarter
Nov 13
New

Hourly Weather History & Observations

Time (CEST) Temp. Dew Point Humidity Pressure Visibility Wind Dir Wind Speed Gust Speed Precip Events Conditions
12:20 AM 59.0 °F 53.6 °F 82% 30.12 in - SW 9.2 mph - N/A   Clear
12:50 AM 59.0 °F 53.6 °F 82% 30.12 in - SW 9.2 mph - N/A   Clear
1:20 AM 59.0 °F 53.6 °F 82% 30.12 in - SW 9.2 mph - N/A   Clear
1:50 AM 60.8 °F 53.6 °F 77% 30.12 in - South 4.6 mph - N/A   Clear
2:20 AM 59.0 °F 53.6 °F 82% 30.12 in - South 4.6 mph - N/A   Clear
2:50 AM 57.2 °F 51.8 °F 82% 30.12 in - WSW 3.5 mph - N/A   Clear
3:20 AM 59.0 °F 53.6 °F 82% 30.12 in - South 5.8 mph - N/A   Clear
3:50 AM 57.2 °F 53.6 °F 88% 30.12 in - South 3.5 mph - N/A   Clear
4:20 AM 57.2 °F 53.6 °F 88% 30.12 in - SSE 4.6 mph - N/A   Clear
4:50 AM 55.4 °F 51.8 °F 88% 30.12 in - SSW 3.5 mph - N/A   Clear
5:50 AM 55.4 °F 51.8 °F 88% 30.12 in - Variable 2.3 mph - N/A   Clear
6:20 AM 51.8 °F 50.0 °F 94% 30.12 in - Variable 1.2 mph - N/A   Clear
6:50 AM 51.8 °F 50.0 °F 94% 30.15 in - Variable 2.3 mph - N/A   Clear
7:20 AM 53.6 °F 51.8 °F 94% 30.15 in - SW 2.3 mph - N/A   Clear
7:50 AM 53.6 °F 51.8 °F 94% 30.15 in - SW 4.6 mph - N/A   Clear
8:20 AM 55.4 °F 53.6 °F 94% 30.15 in 6.2 mi SW 2.3 mph - N/A   Partly Cloudy
8:50 AM 57.2 °F 55.4 °F 94% 30.18 in 6.2 mi SW 2.3 mph - N/A   Partly Cloudy
9:20 AM 60.8 °F 57.2 °F 88% 30.18 in 6.2 mi Variable 2.3 mph - N/A   Partly Cloudy
9:50 AM 64.4 °F 57.2 °F 77% 30.18 in - Variable 2.3 mph - N/A   Clear
10:20 AM 66.2 °F 57.2 °F 73% 30.18 in - Variable 2.3 mph - N/A   Clear
10:50 AM 69.8 °F 57.2 °F 64% 30.18 in - Variable 1.2 mph - N/A   Clear
11:20 AM 71.6 °F 57.2 °F 60% 30.18 in - NE 4.6 mph - N/A   Clear
11:50 AM 71.6 °F 57.2 °F 60% 30.18 in - NE 8.1 mph - N/A   Clear
12:20 PM 71.6 °F 59.0 °F 64% 30.18 in - ENE 9.2 mph - N/A   Clear
12:50 PM 73.4 °F 57.2 °F 57% 30.18 in 6.2 mi ENE 9.2 mph - N/A   Partly Cloudy
1:20 PM 73.4 °F 53.6 °F 50% 30.15 in 6.2 mi East 9.2 mph - N/A   Partly Cloudy
1:50 PM 73.4 °F 59.0 °F 61% 30.15 in 6.2 mi East 12.7 mph - N/A   Partly Cloudy
2:20 PM 73.4 °F 57.2 °F 57% 30.15 in 6.2 mi East 13.8 mph - N/A   Partly Cloudy
2:50 PM 73.4 °F 57.2 °F 57% 30.15 in 6.2 mi East 12.7 mph - N/A   Partly Cloudy
3:20 PM 73.4 °F 57.2 °F 57% 30.12 in 6.2 mi East 12.7 mph - N/A   Partly Cloudy
3:50 PM 73.4 °F 57.2 °F 57% 30.12 in 6.2 mi East 11.5 mph - N/A   Partly Cloudy
4:20 PM 73.4 °F 57.2 °F 57% 30.12 in 6.2 mi ENE 10.4 mph - N/A   Partly Cloudy
4:50 PM 71.6 °F 59.0 °F 64% 30.12 in 6.2 mi East 9.2 mph - N/A   Partly Cloudy
5:20 PM 71.6 °F 57.2 °F 60% 30.12 in 6.2 mi East 9.2 mph - N/A   Partly Cloudy
5:50 PM 71.6 °F 57.2 °F 60% 30.12 in 6.2 mi East 10.4 mph - N/A   Partly Cloudy
6:20 PM 69.8 °F 57.2 °F 64% 30.12 in 6.2 mi East 4.6 mph - N/A   Partly Cloudy
6:50 PM 68.0 °F 57.2 °F 68% 30.12 in 6.2 mi East 5.8 mph - N/A   Partly Cloudy
7:20 PM 66.2 °F 57.2 °F 73% 30.12 in 6.2 mi East 5.8 mph - N/A   Partly Cloudy
7:50 PM 68.0 °F 55.4 °F 64% 30.12 in 6.2 mi East 8.1 mph - N/A   Partly Cloudy
8:20 PM 68.0 °F 55.4 °F 64% 30.12 in 6.2 mi Variable 5.8 mph - N/A   Partly Cloudy
8:50 PM 68.0 °F 55.4 °F 64% 30.12 in 6.2 mi East 4.6 mph - N/A   Partly Cloudy
9:20 PM 66.2 °F 55.4 °F 68% 30.12 in 6.2 mi East 4.6 mph - N/A   Partly Cloudy
9:50 PM 64.4 °F 55.4 °F 73% 30.15 in 6.2 mi East 3.5 mph - N/A   Partly Cloudy
10:20 PM 59.0 °F 53.6 °F 82% 30.15 in - SSW 4.6 mph - N/A   Clear
10:50 PM 57.2 °F 53.6 °F 88% 30.15 in - SW 3.5 mph - N/A   Clear
11:20 PM 57.2 °F 53.6 °F 88% 30.12 in - Variable 2.3 mph - N/A   Clear
11:50 PM 55.4 °F 53.6 °F 94% 30.12 in - Variable 3.5 mph - N/A   Clear